Location: Antichan
(42.9728°N, 0.6667°E)
Time: 14:27:07
(UTC+00:00)

GP-B - Pass Details

Date: 15 August 2020
Orbit: 631 x 635 km, 89.8° (Epoch: 24 September)

Event Time Altitude Azimuth Distance (km) Brightness Sun altitude
Rises 20:39:08 0° 2° (N) 2,942 7.1 -16.8°
Reaches altitude 10° 20:41:22 10° 2° (N) 2,029 6.2 -17.1°
Maximum altitude 20:45:50 87° 93° (E) 641 3.0 -17.8°
Enters shadow 20:48:37 23° 182° (S) 1,359 4.5 -18.2°
